Regional Weather Roundup
Issued by NWS Northern Indiana

Home | Current Version | Previous Version | Graphics & Text | Print | Product List | Glossary On
Versions: 1 2 3 4 5 6 7 8 9 10 11 12 13 14 15 16 17 18 19 20 21 22 23 24 25 26 27 28 29 30 31 32 33 34 35 36 37 38 39 40 41 42 43 44 45 46 47 48 49 50
000
ASUS43 KIWX 301510
RWRIWX

KIWX WEATHER ROUNDUP
NATIONAL WEATHER SERVICE NORTHERN INDIANA
1100 AM EDT SAT MAY 30 2015

NOTE: "FAIR" INDICATES FEW OR NO CLOUDS BELOW 12,000 FEET WITH NO
SIGNIFICANT WEATHER AND/OR OBSTRUCTIONS TO VISIBILITY.

* THESE STATIONS ARE NOT UNDER NWS QUALITY CONTROL. THEY ALSO MAY NOT
  REPORT WEATHER SUCH AS PRECIPITATION OR FOG.

INZ001>027-301600-
NORTHERN INDIANA

CITY           SKY/WX    TMP DP  RH WIND       PRES   REMARKS
GARY*          LGT RAIN  70  68  94 CALM      30.00F
VALPARAISO     RAIN      68  66  93 S7        30.01F
MICHIGAN CITY* LGT RAIN  70  66  88 CALM      30.00F
LAPORTE*       LGT RAIN  71  69  96 S3        30.01S
KNOX*          CLOUDY    70  68  94 CALM      30.00F
SOUTH BEND     CLOUDY    72  66  81 SW5       30.01S
ELKHART*       CLOUDY    72  68  88 SW6       30.01F
GOSHEN         CLOUDY    73  66  78 SW8       30.01S
MONTICELLO*    PTSUNNY   71  69  93 CALM      30.00F
LOGANSPORT*    CLOUDY    72  64  78 CALM      30.02F
ROCHESTER*     LGT RAIN  72  70  94 S3        30.02F
WARSAW*        CLOUDY    72  66  83 SW3       30.02S
ANGOLA*        PTSUNNY   75  70  83 SW8       30.01F
FORT WAYNE     CLOUDY    78  65  63 W9        30.03S
HUNTINGTON*    PTSUNNY   76  66  70 W7        30.02S
PERU/GRISSOM   PTSUNNY   72  68  86 VRB2      30.00F
MARION*        CLOUDY    76  66  70 S9        30.02F

$$
INZ028>050-301600-
CENTRAL INDIANA

CITY           SKY/WX    TMP DP  RH WIND       PRES   REMARKS
LAFAYETTE      LGT RAIN  70  66  87 E3        30.00F
KOKOMO*        CLOUDY    73  66  78 NW7       30.01F
MUNCIE*        CLOUDY    78  67  68 SW9       30.03F
INDIANAPOLIS   PTSUNNY   79  66  64 SW13      30.00F

$$
MIZ043>046-050>051-056>058-064>065-071>073-077>080-301600-
SOUTHWEST LOWER MICHIGAN

CITY           SKY/WX    TMP DP  RH WIND       PRES   REMARKS
BATTLE CREEK   CLOUDY    71  67  87 SW8       30.01S
BENTON HARBOR  CLOUDY    69  67  93 W8        30.00R
COLDWATER*     CLOUDY    74  65  74 W5        30.01S
HILLSDALE*     PTSUNNY   77  66  69 W5        30.02F
HOLLAND        LGT RAIN  66  63  90 CALM      29.99F
GRAND RAPIDS   LGT RAIN  68  65  90 SW7       29.98F
KALAMAZOO      LGT RAIN  71  66  84 SW6       30.01R
STURGIS*       CLOUDY    72  66  83 W3        30.01S
THREE RIVERS*  LGT RAIN  71  67  87 CALM      30.01F

$$
OHZ001>008-015>018-024>025-301600-
NORTHWEST OHIO

CITY           SKY/WX    TMP DP  RH WIND       PRES   REMARKS
WAUSEON*       PTSUNNY   77  68  73 W10G18    30.02S
DEFIANCE       PTSUNNY   78  66  66 SW7       30.02F
FINDLAY        PTSUNNY   79  68  69 W12       30.03F
TOLEDO EXPRESS CLOUDY    78  65  63 W14       30.01F
TOLEDO METCALF MOSUNNY   79  67  66 SW13      30.02F
LIMA           PTSUNNY   77  67  71 SW10      30.04F

$$
AND FOR LAKE MICHIGAN COASTAL AND OPEN LAKE BUOY OBSERVATIONS

STATION/POSITION TEMP    WIND        PRES    VSBY  WAVE
                 AIR SEA DIR/SP/G                  HT/PER
                 (F)     (DEG/KT/KT) (MB)    (MI)  (FT/S)
CALUMET HARBOR    68     180/  4/  6   N/A
MICHIGAN CITY     68     200/  5/  5   N/A
BURNS HARBOR      68     250/  3/  4 1016.3R
SAINT JOSEPH      65     180/  7/  9 1016.6S
SOUTH LAKE BUOY   41 38  350/  8/ 10 1016.4R         0
4 MI NW BRIDGMAN  61 57  260/  6/  6   N/A           1
MICHIGAN CITY     63 57  190/  2/  4   N/A           0

$$
&&


USA.gov is the U.S. government's official web portal to all federal, state and local government web resources and services.